Location: Pilipovskiye Korichintsy
(49.1833°N, 27.4667°E)
Time: 22:37:14
(UTC+00:00)

SL-16 R/B - Pass Details

Date: 14 July 2020
Orbit: 842 x 846 km, 71.0° (Epoch: 10 August)

Event Time Altitude Azimuth Distance (km) Brightness Sun altitude
Rises 00:19:27 0° 334° (NNW) 3,418 5.9 -14.0°
Reaches altitude 10° 00:22:15 10° 346° (NNW) 2,480 5.3 -13.8°
Maximum altitude 00:27:09 29° 46° (NE) 1,517 4.4 -13.4°
Drops below altitude 10° 00:32:02 10° 105° (ESE) 2,469 4.8 -13.0°
Sets 00:34:48 0° 117° (ESE) 3,400 5.4 -12.7°
